Time,TemperatureF,DewpointF,PressureIn,WindDirection,WindDirectionDegrees,WindSpeedMPH,WindSpeedGustMPH,Humidity,HourlyPrecipIn,Conditions,Clouds,dailyrainin,SoftwareType,DateUTC
2013-06-01 00:01:00,70.1,66.4,29.74,SE,128,1.1,1.1,88,0.00,CLR,,0.00,WeatherDisplay:10.37,2013-06-01 04:01:00,
2013-06-01 00:02:00,70.1,66.4,29.74,SE,140,1.1,1.1,88,0.00,CLR,,0.00,WeatherDisplay:10.37,2013-06-01 04:02:00,
2013-06-01 00:03:00,70.2,66.5,29.74,SE,140,3.5,0.0,88,0.00,CLR,,0.00,WeatherDisplay:10.37,2013-06-01 04:03:00,
2013-06-01 00:05:00,70.2,66.5,29.74,SE,140,0.0,0.0,88,0.00,CLR,,0.00,WeatherDisplay:10.37,2013-06-01 04:05:00,
2013-06-01 00:10:00,70.2,66.5,29.75,South,179,3.0,3.0,88,0.00,CLR,,0.00,WeatherDisplay:10.37,2013-06-01 04:10:00,
2013-06-01 00:15:00,70.3,66.6,29.75,South,180,5.8,5.8,88,0.00,CLR,,0.00,WeatherDisplay:10.37,2013-06-01 04:15:00,
2013-06-01 00:20:00,70.5,66.4,29.75,SSW,210,0.0,0.0,87,0.00,CLR,,0.00,WeatherDisplay:10.37,2013-06-01 04:20:00,
2013-06-01 00:25:00,70.6,66.5,29.75,SSE,148,3.5,3.5,87,0.00,CLR,,0.00,WeatherDisplay:10.37,2013-06-01 04:25:00,
2013-06-01 00:30:00,70.6,66.5,29.75,South,173,6.9,6.9,87,0.00,CLR,,0.00,WeatherDisplay:10.37,2013-06-01 04:30:00,
2013-06-01 00:35:00,70.7,66.6,29.74,SSE,164,1.1,1.1,87,0.00,CLR,,0.00,WeatherDisplay:10.37,2013-06-01 04:35:00,
2013-06-01 00:40:00,70.7,66.6,29.74,South,191,0.0,0.0,87,0.00,CLR,,0.00,WeatherDisplay:10.37,2013-06-01 04:40:00,
2013-06-01 00:45:00,70.6,66.5,29.74,South,181,1.1,1.1,87,0.00,CLR,,0.00,WeatherDisplay:10.37,2013-06-01 04:45:00,
2013-06-01 00:50:00,70.5,66.8,29.73,SSE,165,6.9,6.9,88,0.00,CLR,,0.00,WeatherDisplay:10.37,2013-06-01 04:50:00,
2013-06-01 00:55:00,70.5,66.8,29.73,SE,140,0.0,0.0,88,0.00,CLR,,0.00,WeatherDisplay:10.37,2013-06-01 04:55:00,
2013-06-01 01:00:00,70.3,66.9,29.73,SSE,150,0.0,0.0,89,0.00,CLR,,0.00,WeatherDisplay:10.37,2013-06-01 05:00:00,
2013-06-01 01:05:00,70.3,66.9,29.73,South,184,6.0,6.0,89,0.00,CLR,,0.00,WeatherDisplay:10.37,2013-06-01 05:05:00,
2013-06-01 01:10:00,70.2,66.5,29.72,SSE,168,2.0,2.0,88,0.00,CLR,,0.00,WeatherDisplay:10.37,2013-06-01 05:10:00,
2013-06-01 01:15:00,70.1,66.4,29.72,SSE,158,1.1,1.1,88,0.00,CLR,,0.00,WeatherDisplay:10.37,2013-06-01 05:15:00,
2013-06-01 01:20:00,70.0,66.6,29.72,SSE,158,1.1,0.0,89,0.00,CLR,,0.00,WeatherDisplay:10.37,2013-06-01 05:20:00,
2013-06-01 01:25:00,70.0,66.6,29.72,SE,143,3.5,3.5,89,0.00,CLR,,0.00,WeatherDisplay:10.37,2013-06-01 05:25:00,
2013-06-01 01:30:00,69.8,66.4,29.71,SE,144,1.1,1.1,89,0.00,CLR,,0.00,WeatherDisplay:10.37,2013-06-01 05:30:00,
2013-06-01 01:35:00,69.7,66.6,29.71,SE,144,0.0,0.0,90,0.00,CLR,,0.00,WeatherDisplay:10.37,2013-06-01 05:35:00,
2013-06-01 01:40:00,69.5,66.4,29.71,SE,145,2.0,2.0,90,0.00,CLR,,0.00,WeatherDisplay:10.37,2013-06-01 05:40:00,
2013-06-01 01:45:00,69.4,66.3,29.70,SSE,152,2.3,2.3,90,0.00,CLR,,0.00,WeatherDisplay:10.37,2013-06-01 05:45:00,
2013-06-01 01:50:00,69.3,66.2,29.70,South,184,0.0,0.0,90,0.00,CLR,,0.00,WeatherDisplay:10.37,2013-06-01 05:50:00,
2013-06-01 01:55:00,69.2,66.5,29.70,South,185,0.0,0.0,91,0.00,CLR,,0.00,WeatherDisplay:10.37,2013-06-01 05:55:00,
2013-06-01 02:00:00,69.2,66.5,29.70,South,185,0.0,0.0,91,0.00,CLR,,0.00,WeatherDisplay:10.37,2013-06-01 06:00:00,
2013-06-01 02:05:00,69.1,66.4,29.70,South,185,0.0,0.0,91,0.00,CLR,,0.00,WeatherDisplay:10.37,2013-06-01 06:05:00,
2013-06-01 02:10:00,69.0,66.3,29.69,South,185,0.0,0.0,91,0.00,CLR,,0.00,WeatherDisplay:10.37,2013-06-01 06:10:00,
2013-06-01 02:15:00,68.8,66.1,29.69,South,185,0.0,0.0,91,0.00,CLR,,0.00,WeatherDisplay:10.37,2013-06-01 06:15:00,
2013-06-01 02:20:00,68.7,66.3,29.70,South,185,0.0,0.0,92,0.00,CLR,,0.00,WeatherDisplay:10.37,2013-06-01 06:20:00,
2013-06-01 02:25:00,68.6,66.2,29.70,South,184,0.0,0.0,92,0.00,CLR,,0.00,WeatherDisplay:10.37,2013-06-01 06:25:00,
2013-06-01 02:30:00,68.4,66.0,29.69,South,185,0.0,0.0,92,0.00,CLR,,0.00,WeatherDisplay:10.37,2013-06-01 06:30:00,
2013-06-01 02:35:00,68.3,65.9,29.69,South,185,0.0,0.0,92,0.00,CLR,,0.00,WeatherDisplay:10.37,2013-06-01 06:35:00,
2013-06-01 02:40:00,68.1,66.0,29.69,South,185,0.0,0.0,93,0.00,CLR,,0.00,WeatherDisplay:10.37,2013-06-01 06:40:00,
2013-06-01 02:45:00,67.9,65.8,29.70,South,185,0.0,0.0,93,0.00,CLR,,0.00,WeatherDisplay:10.37,2013-06-01 06:45:00,
2013-06-01 02:50:00,67.7,65.6,29.70,South,185,0.0,0.0,93,0.00,CLR,,0.00,WeatherDisplay:10.37,2013-06-01 06:50:00,
2013-06-01 02:55:00,67.4,65.6,29.70,South,184,0.0,0.0,94,0.00,CLR,,0.00,WeatherDisplay:10.37,2013-06-01 06:55:00,
2013-06-01 03:00:00,67.3,65.5,29.70,South,184,1.1,0.0,94,0.00,CLR,,0.00,WeatherDisplay:10.37,2013-06-01 07:00:00,
2013-06-01 03:05:00,67.3,65.5,29.69,South,184,3.5,3.5,94,0.00,CLR,,0.00,WeatherDisplay:10.37,2013-06-01 07:05:00,
2013-06-01 03:10:00,67.3,65.5,29.69,South,185,0.0,0.0,94,0.00,CLR,,0.00,WeatherDisplay:10.37,2013-06-01 07:10:00,
2013-06-01 03:15:00,67.4,65.9,29.69,South,185,0.0,0.0,95,0.00,CLR,,0.00,WeatherDisplay:10.37,2013-06-01 07:15:00,
2013-06-01 03:20:00,67.4,65.9,29.68,South,184,0.0,0.0,95,0.00,CLR,,0.00,WeatherDisplay:10.37,2013-06-01 07:20:00,
2013-06-01 03:25:00,67.2,65.7,29.68,South,185,0.0,0.0,95,0.00,CLR,,0.00,WeatherDisplay:10.37,2013-06-01 07:25:00,
2013-06-01 03:30:00,67.1,65.6,29.67,South,185,0.0,0.0,95,0.00,CLR,,0.00,WeatherDisplay:10.37,2013-06-01 07:30:00,
2013-06-01 03:35:00,67.0,65.5,29.67,South,184,0.0,0.0,95,0.00,CLR,,0.00,WeatherDisplay:10.37,2013-06-01 07:35:00,
2013-06-01 03:40:00,66.9,65.4,29.66,South,184,0.0,0.0,95,0.00,CLR,,0.00,WeatherDisplay:10.37,2013-06-01 07:40:00,
2013-06-01 03:45:00,66.8,65.3,29.66,South,185,2.3,2.3,95,0.00,CLR,,0.00,WeatherDisplay:10.37,2013-06-01 07:45:00,
2013-06-01 03:50:00,66.7,65.2,29.66,South,185,0.0,0.0,95,0.00,CLR,,0.00,WeatherDisplay:10.37,2013-06-01 07:50:00,
2013-06-01 03:55:00,66.7,65.2,29.66,South,185,0.0,0.0,95,0.00,CLR,,0.00,WeatherDisplay:10.37,2013-06-01 07:55:00,
2013-06-01 04:00:00,66.7,65.5,29.66,South,185,0.0,0.0,96,0.00,CLR,,0.00,WeatherDisplay:10.37,2013-06-01 08:00:00,
2013-06-01 04:05:00,66.7,65.5,29.66,South,185,0.0,0.0,96,0.00,CLR,,0.00,WeatherDisplay:10.37,2013-06-01 08:05:00,
2013-06-01 04:10:00,66.7,65.5,29.67,South,185,0.0,0.0,96,0.00,CLR,,0.00,WeatherDisplay:10.37,2013-06-01 08:10:00,
2013-06-01 04:15:00,66.7,65.5,29.67,South,185,0.0,0.0,96,0.00,CLR,,0.00,WeatherDisplay:10.37,2013-06-01 08:15:00,
2013-06-01 04:20:00,66.6,65.4,29.67,South,185,0.0,0.1,96,0.00,CLR,,0.00,WeatherDisplay:10.37,2013-06-01 08:20:00,
2013-06-01 04:25:00,66.7,65.5,29.67,South,185,1.1,1.1,96,0.00,CLR,,0.00,WeatherDisplay:10.37,2013-06-01 08:25:00,
2013-06-01 04:30:00,66.8,65.6,29.67,South,184,0.0,0.0,96,0.00,CLR,,0.00,WeatherDisplay:10.37,2013-06-01 08:30:00,
2013-06-01 04:35:00,66.9,65.7,29.67,South,183,2.3,2.3,96,0.00,CLR,,0.00,WeatherDisplay:10.37,2013-06-01 08:35:00,
2013-06-01 04:40:00,67.1,65.9,29.67,South,169,4.6,4.6,96,0.00,CLR,,0.00,WeatherDisplay:10.37,2013-06-01 08:40:00,
2013-06-01 04:45:00,67.2,65.7,29.66,South,175,1.1,0.0,95,0.00,CLR,,0.00,WeatherDisplay:10.37,2013-06-01 08:45:00,
2013-06-01 04:50:00,67.4,65.9,29.66,SSE,165,2.3,2.3,95,0.00,CLR,,0.00,WeatherDisplay:10.37,2013-06-01 08:50:00,
2013-06-01 04:55:00,67.5,66.0,29.66,SSE,168,3.0,3.0,95,0.00,CLR,,0.00,WeatherDisplay:10.37,2013-06-01 08:55:00,
2013-06-01 05:00:00,67.6,66.1,29.66,South,188,0.0,0.0,95,0.00,CLR,,0.00,WeatherDisplay:10.37,2013-06-01 09:00:00,
2013-06-01 05:05:00,67.8,66.0,29.65,South,173,0.0,0.0,94,0.00,CLR,,0.00,WeatherDisplay:10.37,2013-06-01 09:05:00,
2013-06-01 05:10:00,67.9,66.1,29.64,SSE,153,3.5,3.5,94,0.00,CLR,,0.00,WeatherDisplay:10.37,2013-06-01 09:10:00,
2013-06-01 05:15:00,67.9,65.8,29.64,SE,132,9.2,9.2,93,0.00,CLR,,0.00,WeatherDisplay:10.37,2013-06-01 09:15:00,
2013-06-01 05:20:00,68.1,65.4,29.63,SSE,160,6.9,6.9,91,0.00,CLR,,0.00,WeatherDisplay:10.37,2013-06-01 09:20:00,
2013-06-01 05:25:00,68.4,65.4,29.62,ESE,114,13.8,13.8,90,0.00,CLR,,0.00,WeatherDisplay:10.37,2013-06-01 09:25:00,
2013-06-01 05:30:00,68.7,65.0,29.62,SSE,150,9.2,9.2,88,0.00,CLR,,0.00,WeatherDisplay:10.37,2013-06-01 09:30:00,
2013-06-01 05:35:00,68.8,65.1,29.64,SSE,156,1.1,0.0,88,0.00,CLR,,0.00,WeatherDisplay:10.37,2013-06-01 09:35:00,
2013-06-01 05:40:00,69.0,65.0,29.65,SSW,204,6.9,6.9,87,0.00,CLR,,0.00,WeatherDisplay:10.37,2013-06-01 09:40:00,
2013-06-01 05:45:00,69.2,64.8,29.66,West,261,6.0,6.0,86,0.00,CLR,,0.00,WeatherDisplay:10.37,2013-06-01 09:45:00,
2013-06-01 05:50:00,69.1,64.7,29.67,South,183,17.3,17.3,86,0.00,CLR,,0.00,WeatherDisplay:10.37,2013-06-01 09:50:00,
2013-06-01 05:55:00,69.0,64.6,29.66,SSW,195,3.5,3.5,86,0.00,CLR,,0.00,WeatherDisplay:10.37,2013-06-01 09:55:00,
2013-06-01 06:00:00,68.8,64.8,29.66,SW,220,1.1,1.1,87,0.00,CLR,,0.00,WeatherDisplay:10.37,2013-06-01 10:00:00,
2013-06-01 06:05:00,68.5,64.5,29.67,SW,236,5.0,5.0,87,0.00,CLR,,0.00,WeatherDisplay:10.37,2013-06-01 10:05:00,
2013-06-01 06:10:00,68.4,64.7,29.66,South,169,5.8,5.8,88,0.00,CLR,,0.00,WeatherDisplay:10.37,2013-06-01 10:10:00,
2013-06-01 06:15:00,68.2,64.5,29.66,SW,224,4.6,4.6,88,0.00,CLR,,0.00,WeatherDisplay:10.37,2013-06-01 10:15:00,
2013-06-01 06:20:00,68.1,64.4,29.65,South,184,9.0,9.0,88,0.00,CLR,,0.00,WeatherDisplay:10.37,2013-06-01 10:20:00,
2013-06-01 06:25:00,68.0,64.3,29.66,South,182,5.8,5.8,88,0.00,CLR,,0.00,WeatherDisplay:10.37,2013-06-01 10:25:00,
2013-06-01 06:30:00,67.8,64.1,29.66,South,191,9.2,9.2,88,0.00,CLR,,0.00,WeatherDisplay:10.37,2013-06-01 10:30:00,
2013-06-01 06:35:00,67.7,64.0,29.66,SSW,210,4.6,4.6,88,0.00,CLR,,0.00,WeatherDisplay:10.37,2013-06-01 10:35:00,
2013-06-01 06:40:00,67.6,63.9,29.66,South,183,3.5,3.5,88,0.00,CLR,,0.00,WeatherDisplay:10.37,2013-06-01 10:40:00,
2013-06-01 06:45:00,67.5,63.8,29.66,SSW,209,4.6,4.6,88,0.00,CLR,,0.00,WeatherDisplay:10.37,2013-06-01 10:45:00,
2013-06-01 06:50:00,67.4,64.0,29.66,South,182,10.4,10.4,89,0.00,CLR,,0.00,WeatherDisplay:10.37,2013-06-01 10:50:00,
2013-06-01 06:55:00,67.4,64.0,29.65,South,180,2.3,2.3,89,0.00,CLR,,0.00,WeatherDisplay:10.37,2013-06-01 10:55:00,
2013-06-01 07:00:00,67.4,64.0,29.66,SSW,196,3.0,3.0,89,0.00,CLR,,0.00,WeatherDisplay:10.37,2013-06-01 11:00:00,
2013-06-01 07:05:00,67.4,64.0,29.65,SSW,203,4.6,4.6,89,0.00,CLR,,0.00,WeatherDisplay:10.37,2013-06-01 11:05:00,
2013-06-01 07:10:00,67.4,64.0,29.65,SW,227,4.6,4.6,89,0.00,CLR,,0.00,WeatherDisplay:10.37,2013-06-01 11:10:00,
2013-06-01 07:15:00,67.3,63.9,29.65,SSW,207,3.5,3.5,89,0.00,CLR,,0.00,WeatherDisplay:10.37,2013-06-01 11:15:00,
2013-06-01 07:20:00,67.3,63.9,29.65,West,276,1.1,0.0,89,0.00,CLR,,0.00,WeatherDisplay:10.37,2013-06-01 11:20:00,
2013-06-01 07:25:00,67.4,64.0,29.65,SW,219,1.1,1.1,89,0.00,CLR,,0.00,WeatherDisplay:10.37,2013-06-01 11:25:00,
2013-06-01 07:30:00,67.4,64.0,29.64,SSW,205,1.1,0.0,89,0.00,CLR,,0.00,WeatherDisplay:10.37,2013-06-01 11:30:00,
2013-06-01 07:35:00,67.5,64.1,29.64,SSW,199,1.1,0.0,89,0.00,CLR,,0.00,WeatherDisplay:10.37,2013-06-01 11:35:00,
2013-06-01 07:40:00,67.5,64.5,29.64,SSW,200,1.1,1.1,90,0.00,CLR,,0.00,WeatherDisplay:10.37,2013-06-01 11:40:00,
2013-06-01 07:45:00,67.7,64.3,29.64,SSW,200,3.5,3.5,89,0.00,CLR,,0.00,WeatherDisplay:10.37,2013-06-01 11:45:00,
2013-06-01 07:50:00,67.9,64.5,29.65,SSW,202,4.6,4.6,89,0.00,CLR,,0.00,WeatherDisplay:10.37,2013-06-01 11:50:00,
2013-06-01 07:55:00,68.1,64.7,29.65,South,187,1.1,1.1,89,0.00,CLR,,0.00,WeatherDisplay:10.37,2013-06-01 11:55:00,
2013-06-01 08:00:00,68.4,65.0,29.66,SW,229,3.5,3.5,89,0.00,CLR,,0.00,WeatherDisplay:10.37,2013-06-01 12:00:00,
2013-06-01 08:05:00,68.6,64.9,29.66,SW,231,0.0,0.0,88,0.00,CLR,,0.00,WeatherDisplay:10.37,2013-06-01 12:05:00,
2013-06-01 08:10:00,68.7,65.0,29.66,SSW,196,0.0,0.0,88,0.00,CLR,,0.00,WeatherDisplay:10.37,2013-06-01 12:10:00,
2013-06-01 08:15:00,68.9,65.2,29.65,SSW,196,0.0,0.0,88,0.00,CLR,,0.00,WeatherDisplay:10.37,2013-06-01 12:15:00,
2013-06-01 08:20:00,69.0,65.3,29.65,SSW,205,2.3,2.3,88,0.00,CLR,,0.00,WeatherDisplay:10.37,2013-06-01 12:20:00,
2013-06-01 08:25:00,69.2,65.2,29.65,SSW,202,1.1,1.1,87,0.00,CLR,,0.00,WeatherDisplay:10.37,2013-06-01 12:25:00,
2013-06-01 08:30:00,69.4,65.4,29.66,South,185,2.3,2.3,87,0.00,CLR,,0.00,WeatherDisplay:10.37,2013-06-01 12:30:00,
2013-06-01 08:35:00,69.4,65.4,29.66,SSW,211,3.5,3.5,87,0.00,CLR,,0.00,WeatherDisplay:10.37,2013-06-01 12:35:00,
2013-06-01 08:40:00,69.3,65.3,29.66,SW,223,10.0,10.0,87,0.00,CLR,,0.00,WeatherDisplay:10.37,2013-06-01 12:40:00,
2013-06-01 08:46:00,69.1,65.1,29.67,SSW,207,5.8,5.8,87,0.00,CLR,,0.00,WeatherDisplay:10.37,2013-06-01 12:46:00,
2013-06-01 08:51:00,69.1,65.1,29.66,SSW,205,3.5,3.5,87,0.00,CLR,,0.00,WeatherDisplay:10.37,2013-06-01 12:51:00,
2013-06-01 08:56:00,69.2,64.8,29.66,South,175,12.0,12.0,86,0.00,CLR,,0.00,WeatherDisplay:10.37,2013-06-01 12:56:00,
2013-06-01 09:01:00,69.0,64.6,29.65,SSW,192,4.6,4.6,86,0.00,CLR,,0.00,WeatherDisplay:10.37,2013-06-01 13:01:00,
2013-06-01 09:06:00,69.0,64.3,29.65,South,181,5.8,5.8,85,0.00,CLR,,0.00,WeatherDisplay:10.37,2013-06-01 13:06:00,
2013-06-01 09:11:00,68.9,64.5,29.66,WSW,242,5.8,5.8,86,0.00,CLR,,0.00,WeatherDisplay:10.37,2013-06-01 13:11:00,
2013-06-01 09:16:00,69.0,65.0,29.65,SW,226,1.1,0.0,87,0.00,CLR,,0.00,WeatherDisplay:10.37,2013-06-01 13:16:00,
2013-06-01 09:21:00,69.2,64.8,29.65,SSW,192,7.0,7.0,86,0.00,CLR,,0.00,WeatherDisplay:10.37,2013-06-01 13:21:00,
2013-06-01 09:26:00,69.6,65.2,29.65,SSW,193,11.5,11.5,86,0.00,CLR,,0.00,WeatherDisplay:10.37,2013-06-01 13:26:00,
2013-06-01 09:31:00,70.1,65.4,29.66,SSW,210,6.0,6.0,85,0.00,CLR,,0.00,WeatherDisplay:10.37,2013-06-01 13:31:00,
2013-06-01 09:36:00,70.2,65.5,29.66,SE,125,10.4,10.4,85,0.00,CLR,,0.00,WeatherDisplay:10.37,2013-06-01 13:36:00,
2013-06-01 09:41:00,70.2,65.5,29.66,South,181,9.2,9.2,85,0.00,CLR,,0.00,WeatherDisplay:10.37,2013-06-01 13:41:00,
2013-06-01 09:46:00,70.1,65.4,29.65,WSW,241,3.5,3.5,85,0.00,CLR,,0.00,WeatherDisplay:10.37,2013-06-01 13:46:00,
2013-06-01 09:51:00,70.1,65.4,29.65,South,180,2.3,0.0,85,0.00,CLR,,0.00,WeatherDisplay:10.37,2013-06-01 13:51:00,
2013-06-01 09:56:00,69.8,65.1,29.65,SW,223,5.0,5.0,85,0.00,CLR,,0.00,WeatherDisplay:10.37,2013-06-01 13:56:00,
2013-06-01 10:01:00,69.6,64.9,29.65,SSW,192,9.2,9.2,85,0.00,CLR,,0.00,WeatherDisplay:10.37,2013-06-01 14:01:00,
2013-06-01 10:06:00,69.5,64.8,29.65,South,181,6.9,6.9,85,0.00,CLR,,0.00,WeatherDisplay:10.37,2013-06-01 14:06:00,
2013-06-01 10:11:00,69.4,65.0,29.65,SSE,148,5.8,5.8,86,0.00,CLR,,0.00,WeatherDisplay:10.37,2013-06-01 14:11:00,
2013-06-01 10:16:00,69.3,64.9,29.65,SSW,204,6.9,6.9,86,0.00,CLR,,0.00,WeatherDisplay:10.37,2013-06-01 14:16:00,
2013-06-01 10:21:00,69.2,64.8,29.65,SSE,161,11.5,11.5,86,0.00,CLR,,0.00,WeatherDisplay:10.37,2013-06-01 14:21:00,
2013-06-01 10:26:00,69.5,65.1,29.65,SSE,153,0.0,1.1,86,0.00,CLR,,0.00,WeatherDisplay:10.37,2013-06-01 14:26:00,
2013-06-01 10:31:00,69.7,65.0,29.65,SSW,213,10.4,10.4,85,0.00,CLR,,0.00,WeatherDisplay:10.37,2013-06-01 14:31:00,
2013-06-01 10:36:00,70.0,64.9,29.65,SSW,200,11.5,11.5,84,0.00,CLR,,0.00,WeatherDisplay:10.37,2013-06-01 14:36:00,
2013-06-01 10:41:00,70.3,65.6,29.65,SSE,167,8.1,8.1,85,0.00,CLR,,0.00,WeatherDisplay:10.37,2013-06-01 14:41:00,
2013-06-01 10:46:00,70.4,65.3,29.65,SSW,196,9.2,9.2,84,0.00,CLR,,0.00,WeatherDisplay:10.37,2013-06-01 14:46:00,
2013-06-01 10:51:00,70.7,65.6,29.65,South,172,3.5,0.0,84,0.00,CLR,,0.00,WeatherDisplay:10.37,2013-06-01 14:51:00,
2013-06-01 10:56:00,70.9,66.2,29.65,SSW,207,1.1,1.1,85,0.00,CLR,,0.00,WeatherDisplay:10.37,2013-06-01 14:56:00,
2013-06-01 11:01:00,71.1,65.3,29.65,SSW,200,10.0,10.0,82,0.00,CLR,,0.00,WeatherDisplay:10.37,2013-06-01 15:01:00,
2013-06-01 11:06:00,71.6,65.8,29.65,WSW,251,10.4,10.4,82,0.00,CLR,,0.00,WeatherDisplay:10.37,2013-06-01 15:06:00,
2013-06-01 11:11:00,72.2,66.0,29.65,SSW,195,5.8,5.8,81,0.00,CLR,,0.00,WeatherDisplay:10.37,2013-06-01 15:11:00,
2013-06-01 11:16:00,72.4,65.9,29.66,SSW,197,6.0,6.0,80,0.00,CLR,,0.00,WeatherDisplay:10.37,2013-06-01 15:16:00,
2013-06-01 11:21:00,72.6,65.3,29.66,SSW,199,13.8,13.8,78,0.00,CLR,,0.00,WeatherDisplay:10.37,2013-06-01 15:21:00,
2013-06-01 11:26:00,72.6,65.0,29.66,SSE,159,13.8,13.8,77,0.00,CLR,,0.00,WeatherDisplay:10.37,2013-06-01 15:26:00,
2013-06-01 11:31:00,72.8,65.5,29.66,SSW,211,4.6,4.6,78,0.00,CLR,,0.00,WeatherDisplay:10.37,2013-06-01 15:31:00,
2013-06-01 11:36:00,73.3,66.0,29.66,SW,221,6.9,6.9,78,0.00,CLR,,0.00,WeatherDisplay:10.37,2013-06-01 15:36:00,
2013-06-01 11:41:00,73.3,65.3,29.66,West,261,4.6,4.6,76,0.00,CLR,,0.00,WeatherDisplay:10.37,2013-06-01 15:41:00,
2013-06-01 11:46:00,73.1,65.1,29.67,WSW,252,9.0,9.0,76,0.00,CLR,,0.00,WeatherDisplay:10.37,2013-06-01 15:46:00,
2013-06-01 11:51:00,73.4,65.4,29.66,South,184,10.4,10.4,76,0.00,CLR,,0.00,WeatherDisplay:10.37,2013-06-01 15:51:00,
2013-06-01 11:56:00,74.3,65.1,29.66,WSW,250,17.3,17.3,73,0.00,CLR,,0.00,WeatherDisplay:10.37,2013-06-01 15:56:00,
2013-06-01 12:01:00,74.0,65.2,29.66,South,178,12.7,12.7,74,0.00,CLR,,0.00,WeatherDisplay:10.37,2013-06-01 16:01:00,
2013-06-01 12:06:00,74.5,66.1,29.67,SSW,200,7.0,7.0,75,0.00,CLR,,0.00,WeatherDisplay:10.37,2013-06-01 16:06:00,
2013-06-01 12:11:00,74.6,65.0,29.67,South,177,9.2,9.2,72,0.00,CLR,,0.00,WeatherDisplay:10.37,2013-06-01 16:11:00,
2013-06-01 12:16:00,74.4,65.6,29.67,SW,233,3.5,3.5,74,0.00,CLR,,0.00,WeatherDisplay:10.37,2013-06-01 16:16:00,
2013-06-01 12:21:00,75.0,65.8,29.66,West,263,6.9,6.9,73,0.00,CLR,,0.00,WeatherDisplay:10.37,2013-06-01 16:21:00,
2013-06-01 12:26:00,75.8,65.7,29.66,South,191,9.2,9.2,71,0.00,CLR,,0.00,WeatherDisplay:10.37,2013-06-01 16:26:00,
2013-06-01 12:31:00,75.9,65.8,29.66,ESE,123,6.9,6.9,71,0.00,CLR,,0.00,WeatherDisplay:10.37,2013-06-01 16:31:00,
2013-06-01 12:36:00,76.0,65.5,29.66,SSW,198,10.4,10.4,70,0.00,CLR,,0.00,WeatherDisplay:10.37,2013-06-01 16:36:00,
2013-06-01 12:41:00,76.0,65.5,29.66,SSW,198,11.5,11.5,70,0.00,CLR,,0.00,WeatherDisplay:10.37,2013-06-01 16:41:00,
2013-06-01 12:46:00,76.0,65.5,29.66,South,191,11.5,11.5,70,0.00,CLR,,0.00,WeatherDisplay:10.37,2013-06-01 16:46:00,
2013-06-01 12:51:00,76.0,65.9,29.66,WNW,296,11.5,11.5,71,0.00,CLR,,0.00,WeatherDisplay:10.37,2013-06-01 16:51:00,
2013-06-01 12:56:00,75.9,65.8,29.65,SW,218,19.6,19.6,71,0.00,CLR,,0.00,WeatherDisplay:10.37,2013-06-01 16:56:00,
2013-06-01 13:01:00,76.2,66.1,29.66,ESE,107,3.5,3.5,71,0.00,CLR,,0.00,WeatherDisplay:10.37,2013-06-01 17:01:00,
2013-06-01 13:06:00,76.8,65.4,29.66,SSW,209,5.8,5.8,68,0.00,CLR,,0.00,WeatherDisplay:10.37,2013-06-01 17:06:00,
2013-06-01 13:11:00,77.2,66.2,29.66,SSW,213,11.5,11.5,69,0.00,CLR,,0.00,WeatherDisplay:10.37,2013-06-01 17:11:00,
2013-06-01 13:16:00,77.3,65.9,29.66,SW,223,5.8,5.8,68,0.00,CLR,,0.00,WeatherDisplay:10.37,2013-06-01 17:16:00,
2013-06-01 13:21:00,77.3,65.9,29.66,SSW,207,10.4,10.4,68,0.00,CLR,,0.00,WeatherDisplay:10.37,2013-06-01 17:21:00,
2013-06-01 13:26:00,77.1,65.7,29.65,SSE,163,2.3,2.3,68,0.00,CLR,,0.00,WeatherDisplay:10.37,2013-06-01 17:26:00,
2013-06-01 13:31:00,77.3,65.1,29.65,WSW,247,11.5,11.5,66,0.00,CLR,,0.00,WeatherDisplay:10.37,2013-06-01 17:31:00,
2013-06-01 13:36:00,77.0,65.6,29.65,West,277,11.5,11.5,68,0.00,CLR,,0.00,WeatherDisplay:10.37,2013-06-01 17:36:00,
2013-06-01 13:41:00,77.0,65.6,29.64,WSW,256,3.5,3.5,68,0.00,CLR,,0.00,WeatherDisplay:10.37,2013-06-01 17:41:00,
2013-06-01 13:46:00,77.4,65.6,29.64,South,188,4.6,4.6,67,0.00,CLR,,0.00,WeatherDisplay:10.37,2013-06-01 17:46:00,
2013-06-01 13:51:00,77.9,65.2,29.64,SSW,198,9.2,9.2,65,0.00,CLR,,0.00,WeatherDisplay:10.37,2013-06-01 17:51:00,
2013-06-01 13:56:00,78.0,64.8,29.64,South,190,4.6,4.6,64,0.00,CLR,,0.00,WeatherDisplay:10.37,2013-06-01 17:56:00,
2013-06-01 14:01:00,77.9,66.1,29.64,SSW,202,5.8,5.8,67,0.00,CLR,,0.00,WeatherDisplay:10.37,2013-06-01 18:01:00,
2013-06-01 14:06:00,77.3,65.1,29.64,WSW,241,3.5,3.5,66,0.00,CLR,,0.00,WeatherDisplay:10.37,2013-06-01 18:06:00,
2013-06-01 14:11:00,77.5,64.8,29.65,South,173,9.2,9.2,65,0.00,CLR,,0.00,WeatherDisplay:10.37,2013-06-01 18:11:00,
2013-06-01 14:16:00,76.9,64.7,29.64,SW,233,5.8,5.8,66,0.00,CLR,,0.00,WeatherDisplay:10.37,2013-06-01 18:16:00,
2013-06-01 14:21:00,76.8,65.0,29.64,SSW,213,3.5,3.5,67,0.00,CLR,,0.00,WeatherDisplay:10.37,2013-06-01 18:21:00,
2013-06-01 14:26:00,77.5,66.5,29.65,South,183,1.1,1.1,69,0.00,CLR,,0.00,WeatherDisplay:10.37,2013-06-01 18:26:00,
2013-06-01 14:31:00,77.8,65.5,29.64,West,268,11.5,11.5,66,0.00,CLR,,0.00,WeatherDisplay:10.37,2013-06-01 18:31:00,
2013-06-01 14:36:00,78.5,65.3,29.64,SSW,200,12.7,12.7,64,0.00,CLR,,0.00,WeatherDisplay:10.37,2013-06-01 18:36:00,
2013-06-01 14:41:00,78.6,64.0,29.64,NE,51,10.4,10.4,61,0.00,CLR,,0.00,WeatherDisplay:10.37,2013-06-01 18:41:00,
2013-06-01 14:46:00,78.6,64.5,29.64,SW,217,11.5,11.5,62,0.00,CLR,,0.00,WeatherDisplay:10.37,2013-06-01 18:46:00,
2013-06-01 14:51:00,78.8,65.1,29.64,West,259,6.0,6.0,63,0.00,CLR,,0.00,WeatherDisplay:10.37,2013-06-01 18:51:00,
2013-06-01 14:56:00,78.7,64.1,29.64,SSW,210,11.5,11.5,61,0.00,CLR,,0.00,WeatherDisplay:10.37,2013-06-01 18:56:00,
2013-06-01 15:01:00,78.3,64.2,29.63,WSW,256,4.6,4.6,62,0.00,CLR,,0.00,WeatherDisplay:10.37,2013-06-01 19:01:00,
2013-06-01 15:06:00,78.7,65.5,29.63,WSW,252,5.8,5.8,64,0.00,CLR,,0.00,WeatherDisplay:10.37,2013-06-01 19:06:00,
2013-06-01 15:11:00,79.3,65.1,29.63,South,173,11.5,11.5,62,0.00,CLR,,0.00,WeatherDisplay:10.37,2013-06-01 19:11:00,
2013-06-01 15:17:00,79.5,64.9,29.63,SSW,213,10.4,10.4,61,0.00,CLR,,0.00,WeatherDisplay:10.37,2013-06-01 19:17:00,
2013-06-01 15:22:00,80.1,65.9,29.64,WSW,254,4.6,4.6,62,0.00,CLR,,0.00,WeatherDisplay:10.37,2013-06-01 19:22:00,
2013-06-01 15:27:00,80.8,64.6,29.64,South,187,15.0,15.0,58,0.00,CLR,,0.00,WeatherDisplay:10.37,2013-06-01 19:27:00,
2013-06-01 15:32:00,79.9,62.8,29.64,South,176,11.5,11.5,56,0.00,CLR,,0.00,WeatherDisplay:10.37,2013-06-01 19:32:00,
2013-06-01 15:37:00,79.9,63.8,29.64,South,186,12.7,12.7,58,0.00,CLR,,0.00,WeatherDisplay:10.37,2013-06-01 19:37:00,
2013-06-01 15:42:00,80.2,65.5,29.64,South,185,3.5,3.5,61,0.00,CLR,,0.00,WeatherDisplay:10.37,2013-06-01 19:42:00,
2013-06-01 15:47:00,80.5,63.4,29.64,WSW,241,9.0,9.0,56,0.00,CLR,,0.00,WeatherDisplay:10.37,2013-06-01 19:47:00,
2013-06-01 15:52:00,80.4,63.3,29.64,SW,233,11.0,11.0,56,0.00,CLR,,0.00,WeatherDisplay:10.37,2013-06-01 19:52:00,
2013-06-01 15:57:00,80.0,63.4,29.64,SW,229,5.0,5.0,57,0.00,CLR,,0.00,WeatherDisplay:10.37,2013-06-01 19:57:00,
2013-06-01 16:02:00,80.4,64.3,29.64,WNW,292,10.4,10.4,58,0.00,CLR,,0.00,WeatherDisplay:10.37,2013-06-01 20:02:00,
2013-06-01 16:07:00,80.4,64.8,29.64,South,191,4.0,4.0,59,0.00,CLR,,0.00,WeatherDisplay:10.37,2013-06-01 20:07:00,
2013-06-01 16:12:00,79.8,63.2,29.64,South,174,10.4,10.4,57,0.00,CLR,,0.00,WeatherDisplay:10.37,2013-06-01 20:12:00,
2013-06-01 16:17:00,79.8,63.7,29.64,WSW,250,10.0,10.0,58,0.00,CLR,,0.00,WeatherDisplay:10.37,2013-06-01 20:17:00,
2013-06-01 16:22:00,80.2,63.6,29.64,SW,223,5.8,5.8,57,0.00,CLR,,0.00,WeatherDisplay:10.37,2013-06-01 20:22:00,
2013-06-01 16:27:00,80.0,62.9,29.64,SE,145,11.5,11.5,56,0.00,CLR,,0.00,WeatherDisplay:10.37,2013-06-01 20:27:00,
2013-06-01 16:32:00,80.3,64.7,29.64,West,273,6.9,6.9,59,0.00,CLR,,0.00,WeatherDisplay:10.37,2013-06-01 20:32:00,
2013-06-01 16:37:00,80.9,64.2,29.63,WSW,250,5.8,5.8,57,0.00,CLR,,0.00,WeatherDisplay:10.37,2013-06-01 20:37:00,
2013-06-01 16:42:00,81.0,64.8,29.63,SSW,192,3.0,3.0,58,0.00,CLR,,0.00,WeatherDisplay:10.37,2013-06-01 20:42:00,
2013-06-01 16:47:00,80.9,64.2,29.63,South,186,6.9,6.9,57,0.00,CLR,,0.00,WeatherDisplay:10.37,2013-06-01 20:47:00,
2013-06-01 16:52:00,80.9,65.2,29.64,WNW,289,1.1,1.1,59,0.00,CLR,,0.00,WeatherDisplay:10.37,2013-06-01 20:52:00,
2013-06-01 16:57:00,80.5,65.8,29.64,WSW,251,2.3,2.3,61,0.00,CLR,,0.00,WeatherDisplay:10.37,2013-06-01 20:57:00,
2013-06-01 17:02:00,80.6,66.8,29.64,South,178,6.0,6.0,63,0.00,CLR,,0.00,WeatherDisplay:10.37,2013-06-01 21:02:00,
2013-06-01 17:07:00,80.5,64.9,29.64,West,279,3.5,3.5,59,0.00,CLR,,0.00,WeatherDisplay:10.37,2013-06-01 21:07:00,
2013-06-01 17:12:00,80.6,65.4,29.63,SSW,210,4.0,4.0,60,0.00,CLR,,0.00,WeatherDisplay:10.37,2013-06-01 21:12:00,
2013-06-01 17:17:00,80.2,64.6,29.64,SSW,207,2.3,2.3,59,0.00,CLR,,0.00,WeatherDisplay:10.37,2013-06-01 21:17:00,
2013-06-01 17:22:00,79.8,64.2,29.64,South,190,8.1,8.1,59,0.00,CLR,,0.00,WeatherDisplay:10.37,2013-06-01 21:22:00,
2013-06-01 17:27:00,79.5,64.4,29.64,SW,228,1.1,0.0,60,0.00,CLR,,0.00,WeatherDisplay:10.37,2013-06-01 21:27:00,
2013-06-01 17:32:00,79.1,63.5,29.64,SW,215,6.9,6.9,59,0.00,CLR,,0.00,WeatherDisplay:10.37,2013-06-01 21:32:00,
2013-06-01 17:37:00,78.7,63.6,29.64,WSW,253,4.6,4.6,60,0.00,CLR,,0.00,WeatherDisplay:10.37,2013-06-01 21:37:00,
2013-06-01 17:42:00,77.9,63.8,29.64,South,188,3.5,3.5,62,0.00,CLR,,0.00,WeatherDisplay:10.37,2013-06-01 21:42:00,
2013-06-01 17:47:00,77.5,64.8,29.64,SW,223,4.6,4.6,65,0.00,CLR,,0.00,WeatherDisplay:10.37,2013-06-01 21:47:00,
2013-06-01 17:52:00,77.1,64.9,29.64,SSE,167,0.0,0.0,66,0.00,CLR,,0.00,WeatherDisplay:10.37,2013-06-01 21:52:00,
2013-06-01 17:57:00,76.7,65.3,29.64,SSW,203,0.0,0.0,68,0.00,CLR,,0.00,WeatherDisplay:10.37,2013-06-01 21:57:00,
2013-06-01 18:02:00,76.5,65.1,29.64,SSW,209,3.5,3.5,68,0.00,CLR,,0.00,WeatherDisplay:10.37,2013-06-01 22:02:00,
2013-06-01 18:07:00,76.3,65.4,29.64,South,188,4.6,4.6,69,0.00,CLR,,0.00,WeatherDisplay:10.37,2013-06-01 22:07:00,
2013-06-01 18:12:00,76.2,65.7,29.64,South,179,4.0,4.0,70,0.00,CLR,,0.00,WeatherDisplay:10.37,2013-06-01 22:12:00,
2013-06-01 18:17:00,76.2,66.1,29.64,WSW,244,0.0,0.0,71,0.00,CLR,,0.00,WeatherDisplay:10.37,2013-06-01 22:17:00,
2013-06-01 18:22:00,76.0,65.9,29.64,SSW,202,2.0,0.0,71,0.00,CLR,,0.00,WeatherDisplay:10.37,2013-06-01 22:22:00,
2013-06-01 18:27:00,75.8,65.3,29.64,South,189,6.9,6.9,70,0.00,CLR,,0.00,WeatherDisplay:10.37,2013-06-01 22:27:00,
2013-06-01 18:32:00,75.6,65.5,29.64,SSW,202,1.0,1.0,71,0.00,CLR,,0.00,WeatherDisplay:10.37,2013-06-01 22:32:00,
2013-06-01 18:37:00,75.4,64.9,29.63,South,188,9.2,9.2,70,0.00,CLR,,0.00,WeatherDisplay:10.37,2013-06-01 22:37:00,
2013-06-01 18:42:00,75.3,65.2,29.64,SSW,194,5.8,5.8,71,0.00,CLR,,0.00,WeatherDisplay:10.37,2013-06-01 22:42:00,
2013-06-01 18:47:00,75.2,65.6,29.64,SSW,196,1.1,0.0,72,0.00,CLR,,0.00,WeatherDisplay:10.37,2013-06-01 22:47:00,
2013-06-01 18:52:00,74.9,66.1,29.64,South,184,3.5,3.5,74,0.00,CLR,,0.00,WeatherDisplay:10.37,2013-06-01 22:52:00,
2013-06-01 18:57:00,74.4,65.2,29.64,SSW,197,9.2,9.2,73,0.00,CLR,,0.00,WeatherDisplay:10.37,2013-06-01 22:57:00,
2013-06-01 19:02:00,73.5,63.9,29.64,SSW,198,8.1,8.1,72,0.00,CLR,,0.00,WeatherDisplay:10.37,2013-06-01 23:02:00,
2013-06-01 19:07:00,72.8,63.2,29.64,South,182,3.5,3.5,72,0.00,CLR,,0.00,WeatherDisplay:10.37,2013-06-01 23:07:00,
2013-06-01 19:12:00,72.3,64.3,29.63,SW,233,0.0,0.0,76,0.00,CLR,,0.00,WeatherDisplay:10.37,2013-06-01 23:12:00,
2013-06-01 19:17:00,72.0,64.4,29.64,SW,229,1.1,1.1,77,0.00,CLR,,0.00,WeatherDisplay:10.37,2013-06-01 23:17:00,
2013-06-01 19:22:00,71.5,64.6,29.64,SSW,201,1.1,1.1,79,0.00,CLR,,0.00,WeatherDisplay:10.37,2013-06-01 23:22:00,
2013-06-01 19:27:00,71.3,64.8,29.64,South,182,6.9,6.9,80,0.00,CLR,,0.00,WeatherDisplay:10.37,2013-06-01 23:27:00,
2013-06-01 19:32:00,71.3,64.8,29.64,South,186,3.5,3.5,80,0.00,CLR,,0.00,WeatherDisplay:10.37,2013-06-01 23:32:00,
2013-06-01 19:37:00,71.3,64.8,29.64,South,185,1.1,0.0,80,0.00,CLR,,0.00,WeatherDisplay:10.37,2013-06-01 23:37:00,
2013-06-01 19:42:00,71.3,65.2,29.64,South,185,0.0,0.0,81,0.00,CLR,,0.00,WeatherDisplay:10.37,2013-06-01 23:42:00,
2013-06-01 19:47:00,71.3,65.2,29.63,South,185,0.0,0.0,81,0.00,CLR,,0.00,WeatherDisplay:10.37,2013-06-01 23:47:00,
2013-06-01 19:52:00,71.3,65.2,29.63,South,183,3.5,3.5,81,0.00,CLR,,0.00,WeatherDisplay:10.37,2013-06-01 23:52:00,
2013-06-01 19:57:00,71.3,64.8,29.63,South,184,0.0,0.0,80,0.00,CLR,,0.00,WeatherDisplay:10.37,2013-06-01 23:57:00,
2013-06-01 20:02:00,71.3,65.2,29.63,South,184,1.1,1.1,81,0.00,CLR,,0.00,WeatherDisplay:10.37,2013-06-02 00:02:00,
2013-06-01 20:07:00,71.3,65.5,29.63,South,184,0.0,0.0,82,0.00,CLR,,0.00,WeatherDisplay:10.37,2013-06-02 00:07:00,
2013-06-01 20:12:00,71.2,65.4,29.63,South,184,0.0,0.0,82,0.00,CLR,,0.00,WeatherDisplay:10.37,2013-06-02 00:12:00,
2013-06-01 20:17:00,71.2,65.4,29.63,South,184,0.0,0.0,82,0.00,CLR,,0.00,WeatherDisplay:10.37,2013-06-02 00:17:00,
2013-06-01 20:22:00,71.0,64.9,29.63,South,184,0.0,0.0,81,0.00,CLR,,0.00,WeatherDisplay:10.37,2013-06-02 00:22:00,
2013-06-01 20:27:00,71.0,65.2,29.63,South,184,1.1,0.0,82,0.00,CLR,,0.00,WeatherDisplay:10.37,2013-06-02 00:27:00,
2013-06-01 20:32:00,70.9,65.8,29.63,South,184,1.1,0.0,84,0.00,CLR,,0.00,WeatherDisplay:10.37,2013-06-02 00:32:00,
2013-06-01 20:37:00,70.7,65.3,29.63,South,184,0.0,0.0,83,0.00,CLR,,0.00,WeatherDisplay:10.37,2013-06-02 00:37:00,
2013-06-01 20:42:00,70.6,65.2,29.63,South,184,0.0,0.0,83,0.00,CLR,,0.00,WeatherDisplay:10.37,2013-06-02 00:42:00,
2013-06-01 20:47:00,70.5,65.4,29.63,South,184,3.5,3.5,84,0.00,CLR,,0.00,WeatherDisplay:10.37,2013-06-02 00:47:00,
2013-06-01 20:52:00,70.3,65.2,29.63,South,184,2.0,2.0,84,0.00,CLR,,0.00,WeatherDisplay:10.37,2013-06-02 00:52:00,
2013-06-01 20:57:00,70.3,65.2,29.63,South,188,0.0,0.0,84,0.00,CLR,,0.00,WeatherDisplay:10.37,2013-06-02 00:57:00,
2013-06-01 21:02:00,70.3,64.9,29.63,South,174,5.8,5.8,83,0.00,CLR,,0.00,WeatherDisplay:10.37,2013-06-02 01:02:00,
2013-06-01 21:07:00,70.5,64.7,29.62,SSW,192,4.6,4.6,82,0.00,CLR,,0.00,WeatherDisplay:10.37,2013-06-02 01:07:00,
2013-06-01 21:12:00,70.5,65.1,29.62,South,189,0.0,0.0,83,0.00,CLR,,0.00,WeatherDisplay:10.37,2013-06-02 01:12:00,
2013-06-01 21:17:00,70.3,64.5,29.62,South,188,0.0,0.0,82,0.00,CLR,,0.00,WeatherDisplay:10.37,2013-06-02 01:17:00,
2013-06-01 21:22:00,70.2,64.8,29.62,South,191,3.5,3.5,83,0.00,CLR,,0.00,WeatherDisplay:10.37,2013-06-02 01:22:00,
2013-06-01 21:27:00,70.2,64.8,29.62,SW,217,4.0,4.0,83,0.00,CLR,,0.00,WeatherDisplay:10.37,2013-06-02 01:27:00,
2013-06-01 21:32:00,70.1,64.3,29.61,SSW,202,4.6,4.6,82,0.00,CLR,,0.00,WeatherDisplay:10.37,2013-06-02 01:32:00,
2013-06-01 21:37:00,70.1,64.7,29.61,SSE,162,1.1,1.1,83,0.00,CLR,,0.00,WeatherDisplay:10.37,2013-06-02 01:37:00,
2013-06-01 21:42:00,69.9,64.5,29.61,South,182,0.0,0.0,83,0.00,CLR,,0.00,WeatherDisplay:10.37,2013-06-02 01:42:00,
2013-06-01 21:47:00,69.7,64.3,29.61,SSW,194,5.8,5.8,83,0.00,CLR,,0.00,WeatherDisplay:10.37,2013-06-02 01:47:00,
2013-06-01 21:52:00,69.7,64.3,29.61,SW,225,3.5,3.5,83,0.00,CLR,,0.00,WeatherDisplay:10.37,2013-06-02 01:52:00,
2013-06-01 21:57:00,69.6,64.2,29.62,SSW,192,9.2,9.2,83,0.00,CLR,,0.00,WeatherDisplay:10.37,2013-06-02 01:57:00,
2013-06-01 22:02:00,69.5,64.1,29.62,SSW,195,5.0,5.0,83,0.00,CLR,,0.00,WeatherDisplay:10.37,2013-06-02 02:02:00,
2013-06-01 22:07:00,69.4,64.0,29.61,South,188,4.6,4.6,83,0.00,CLR,,0.00,WeatherDisplay:10.37,2013-06-02 02:07:00,
2013-06-01 22:12:00,69.4,64.0,29.61,SSW,195,4.6,4.6,83,0.00,CLR,,0.00,WeatherDisplay:10.37,2013-06-02 02:12:00,
2013-06-01 22:17:00,69.3,63.9,29.61,SSW,208,0.0,0.0,83,0.00,CLR,,0.00,WeatherDisplay:10.37,2013-06-02 02:17:00,
2013-06-01 22:22:00,69.2,64.2,29.61,SSW,207,3.5,3.5,84,0.00,CLR,,0.00,WeatherDisplay:10.37,2013-06-02 02:22:00,
2013-06-01 22:27:00,69.0,64.0,29.61,SW,234,3.5,3.5,84,0.00,CLR,,0.00,WeatherDisplay:10.37,2013-06-02 02:27:00,
2013-06-01 22:32:00,68.9,63.9,29.61,SSW,207,0.0,0.0,84,0.00,CLR,,0.00,WeatherDisplay:10.37,2013-06-02 02:32:00,
2013-06-01 22:37:00,68.8,63.8,29.60,SSW,195,0.0,0.0,84,0.00,CLR,,0.00,WeatherDisplay:10.37,2013-06-02 02:37:00,
2013-06-01 22:42:00,68.7,63.7,29.60,SSW,194,1.1,1.1,84,0.00,CLR,,0.00,WeatherDisplay:10.37,2013-06-02 02:42:00,
2013-06-01 22:47:00,68.5,63.8,29.60,SSW,194,1.1,0.0,85,0.00,CLR,,0.00,WeatherDisplay:10.37,2013-06-02 02:47:00,
2013-06-01 22:52:00,68.4,64.0,29.60,SSW,194,0.0,0.0,86,0.00,CLR,,0.00,WeatherDisplay:10.37,2013-06-02 02:52:00,
2013-06-01 22:57:00,68.3,63.9,29.59,SSW,194,0.0,0.0,86,0.00,CLR,,0.00,WeatherDisplay:10.37,2013-06-02 02:57:00,
2013-06-01 23:02:00,68.1,63.8,29.59,SSW,196,1.1,0.0,86,0.00,CLR,,0.00,WeatherDisplay:10.37,2013-06-02 03:02:00,
2013-06-01 23:07:00,68.0,64.0,29.59,SSW,196,0.0,0.0,87,0.00,CLR,,0.00,WeatherDisplay:10.37,2013-06-02 03:07:00,
2013-06-01 23:12:00,67.9,63.9,29.59,SSW,196,0.0,0.0,87,0.00,CLR,,0.00,WeatherDisplay:10.37,2013-06-02 03:12:00,
2013-06-01 23:17:00,67.8,63.8,29.59,SSW,196,0.0,0.0,87,0.00,CLR,,0.00,WeatherDisplay:10.37,2013-06-02 03:17:00,
2013-06-01 23:22:00,67.6,63.6,29.58,SSW,196,0.0,0.0,87,0.00,CLR,,0.00,WeatherDisplay:10.37,2013-06-02 03:22:00,
2013-06-01 23:27:00,67.6,63.9,29.58,SSW,196,0.0,0.0,88,0.00,CLR,,0.00,WeatherDisplay:10.37,2013-06-02 03:27:00,
2013-06-01 23:32:00,67.4,63.7,29.58,SSW,196,0.0,0.0,88,0.00,CLR,,0.00,WeatherDisplay:10.37,2013-06-02 03:32:00,
2013-06-01 23:37:00,67.3,63.6,29.58,SSW,196,0.0,0.0,88,0.00,CLR,,0.00,WeatherDisplay:10.37,2013-06-02 03:37:00,
2013-06-01 23:42:00,67.2,63.5,29.58,SSW,196,0.0,0.0,88,0.00,CLR,,0.00,WeatherDisplay:10.37,2013-06-02 03:42:00,
2013-06-01 23:47:00,67.1,63.4,29.58,SSW,196,0.0,0.0,88,0.00,CLR,,0.00,WeatherDisplay:10.37,2013-06-02 03:47:00,
2013-06-01 23:52:00,67.0,63.3,29.58,SSW,196,0.0,0.0,88,0.00,CLR,,0.00,WeatherDisplay:10.37,2013-06-02 03:52:00,
2013-06-01 23:57:00,66.9,63.6,29.58,SSW,197,2.3,2.3,89,0.00,CLR,,0.00,WeatherDisplay:10.37,2013-06-02 03:57:00,